Location: Maiden
(35.5760°N, 81.2120°W)
Time: 16:13:52
(UTC-04:00)

Vanguard 2 - Pass Details

Date: 01 August 2021
Orbit: 552 x 2938 km, 32.9° (Epoch: 20 September)

Event Time Altitude Azimuth Distance (km) Brightness Sun altitude
Exits shadow 04:21:45 14° 137° (SE) 1,593 9.1 -23.0°
Drops below altitude 10° 04:23:14 10° 116° (ESE) 1,870 9.7 -22.8°
Sets 04:26:31 0° 92° (E) 2,939 11.2 -22.3°
